Content
SEND FEEDBACK

Daily
Averages
Monthly
Summary
United States of America

ELIZABETH, NEW JERSEY


Home > North America > United States > New Jersey
Elevation: 1 foot     Latitude: 40 42N     Longitude: 074 10W

WEATHER
 
SELECT A DAY
Number of Records: 187,555;   Date Range: 1/1/95 - 4/16/14
 
SHARE

PRINT THIS DATA

[ ← Previous Day ]
WEATHER ALMANAC - MAY 22, 2013
[ Next Day → ]
[ °C ]   °F
Weather ElementAverageHighLow
Temperature70 °F79 °F (4:51 pm)62.6 °F (8:09 am)
Dewpoint63.6 °F69.8 °F (3:47 pm)59 °F (6:51 am)
Humidity80.6 %94 % (9:12 am)69 % (2:51 pm)
Barometer29.89 in29.94 in (8:09 am)29.83 in (5:51 pm)
Wind Speed4.6 mph10.4 mph (1:51 am)
Weather ElementAverage
Visibility5.7 mi
Wind DirectionENE (77.8 °)

Weather ElementTotal
Precipitation---
Cooling Degree Days5.8 (Base 65)
Growing Degree Days20.8 (Base 50)
Averaged from 32 records on May 22, 2013
WEATHER CONDITIONS BREAKOUT
WIND DIRECTION BREAKOUT
WEATHER BY HOUR - MAY 22, 2013
[ °C ]   °F
Local TimeTemperatureDewpointHumidityBarometerVisibilityWind DirectionWind SpeedGust SpeedPrecipitationEventsConditions
1:51 AM73.0 °F66.9 °F81 %29.86 in10.0 miSW (220°)10.4 mphScattered Clouds
2:51 AM73.0 °F66.9 °F81 %29.85 in10.0 miSSW (200°)9.2 mphScattered Clouds
3:51 AM72.0 °F66.9 °F84 %29.86 in10.0 miSW (220°)10.4 mphMostly Cloudy
4:51 AM71.1 °F66.9 °F87 %29.86 in10.0 miCalmMostly Cloudy
5:51 AM69.1 °F64.0 °F84 %29.88 in8.0 miEast (100°)8.1 mphMostly Cloudy
6:51 AM63.0 °F59.0 °F87 %29.92 in7.0 miNNE (30°)9.2 mphOvercast
7:51 AM63.0 °F59.0 °F87 %29.93 in6.0 miNNE (20°)5.8 mphOvercast
8:09 AM62.6 °F59.0 °F88 %29.94 in6.0 miNE (50°)3.5 mphOvercast
8:51 AM63.0 °F59.0 °F87 %29.94 in4.0 miESE (110°)3.5 mphOvercast
8:53 AM62.6 °F59.0 °F88 %29.93 in2.0 miEast (90°)5.8 mphOvercast
9:12 AM62.6 °F60.8 °F94 %29.93 in1.0 miESE (110°)4.6 mphOvercast
9:47 AM64.4 °F60.8 °F88 %29.93 in1.0 miEast (90°)4.6 mph0.00 inLight Drizzle
9:51 AM63.0 °F60.1 °F90 %29.93 in1.0 miVariable3.5 mph0.00 inLight Drizzle
10:51 AM64.0 °F60.1 °F87 %29.94 in1.0 miCalm0.00 inLight Drizzle
10:55 AM64.4 °F60.8 °F88 %29.93 in2.0 miNE (40°)3.5 mph0.00 inHaze
11:02 AM64.4 °F60.8 °F88 %29.93 in1.5 miCalm0.00 inOvercast
11:41 AM66.2 °F60.8 °F83 %29.92 in1.5 miCalm0.00 inHaze
11:51 AM66.9 °F61.0 °F81 %29.92 in2.5 miCalm0.00 inHaze
12:51 PM71.1 °F62.1 °F73 %29.91 in2.5 miNE (40°)3.5 mphHaze
1:51 PM73.0 °F64.9 °F76 %29.89 in2.5 miCalmHaze
2:36 PM73.4 °F64.4 °F73 %29.88 in5.0 miCalmHaze
2:51 PM75.0 °F64.0 °F69 %29.88 in6.0 miVariable3.5 mphHaze
3:47 PM78.8 °F69.8 °F74 %29.86 in5.0 miSSE (160°)6.9 mphHaze
3:51 PM78.1 °F68.0 °F71 %29.86 in5.0 miSSW (200°)8.1 mphHaze
4:51 PM79.0 °F68.0 °F69 %29.85 in6.0 miSE (140°)6.9 mphHaze
5:51 PM78.1 °F68.0 °F71 %29.83 in7.0 miEast (80°)5.8 mphMostly Cloudy
6:51 PM77.0 °F66.0 °F69 %29.83 in9.0 miEast (90°)4.6 mphMostly Cloudy
7:51 PM73.9 °F64.9 °F73 %29.84 in9.0 miEast (80°)4.6 mphMostly Cloudy
8:51 PM71.1 °F64.0 °F78 %29.85 in10.0 miNE (50°)4.6 mphMostly Cloudy
9:51 PM73.9 °F64.0 °F71 %29.88 in10.0 miCalmMostly Cloudy
10:51 PM75.0 °F68.0 °F79 %29.88 in10.0 miSouth (190°)8.1 mphMostly Cloudy
11:51 PM75.0 °F68.0 °F79 %29.88 in10.0 miSouth (180°)6.9 mphMostly Cloudy
Hourly data recorded from KEWR, located 0.88 miles away from Elizabeth, New Jersey







STORIES FROM OUR PARTNERS